Airfield :
LOGIN :

Register | Disclaimer

   EN    FR    IT 

 










Legend :    VFR   Marginal VFR   IFR   Intensive IFR   Very Intensive IFR
Visi :
Ceiling :
>= 8 km
>= 3000ft
5 to 8 km
1000 to 3000 ft
1500m to 5 km
500 to 1000 ft
800 to 1500m
200 to 500 ft
< 800m
< 200 ft
Symbols :   Thunderstorms  Fog  Heavy snow  Heavy precipitations  Wind > 20 kt
SIGMETs :     Misc.  Thunderstorms  Icing  Turbulence  Mountain Waves  Volcanic Ashes







- Airport Elevation : 915 ft
- IATA code : LUG


LSZA - Lugano

CURRENT METAR :
  • 191150Z 20006KT 9999 SCT045TCU 28/18 Q1016 NOSIG

EXPIRED METARs :
  • 191120Z 19005KT 160V230 9999 SCT045TCU 27/17 Q1017 NOSIG
  • 191050Z 19005KT 9999 SCT033TCU 27/17 Q1017 NOSIG
  • 191020Z 19004KT 140V230 9000 SCT033TCU 26/17 Q1017 NOSIG
  • 190950Z 19004KT 150V220 9000 SCT033TCU 25/17 Q1017 NOSIG
  • 190920Z 20004KT 160V220 9000 FEW033TCU 25/17 Q1017 NOSIG

TAF TAF LSZA
Valid from the 19 at 12:00 until the 19 at 21:00 UTC


191125Z 1912/1921 19005KT 9999 SCT030
TEMPO 1912/1916 SCT035TCU
TEMPO 1918/1921 CAVOK
ATIS : +41 22 417 40 88
No reported NOTAMs for that airfield.



MET'MAP, your aeronautical weather chart ! - Copyright ORBIFLY December 2007 - Disclaimer

ORBIFLY MET'MAP TEAM :

Programming & Development : Alexandra Zaïnal
Concept & Development : Baudouin d'Aumeries
Co-Development & Prog : Marc-Olivier Méhu
Technical & hardware support : Manuel Goepfert

Contact : metmap@orbifly.com




SOURCES & CREDITS :

   NOAA